EST,Max TemperatureF,Mean TemperatureF,Min TemperatureF,Max Dew PointF,MeanDew PointF,Min DewpointF,Max Humidity, Mean Humidity, Min Humidity, Max Sea Level PressureIn, Mean Sea Level PressureIn, Min Sea Level PressureIn, Max VisibilityMiles, Mean VisibilityMiles, Min VisibilityMiles, Max Wind SpeedMPH, Mean Wind SpeedMPH, Max Gust SpeedMPH,PrecipitationIn, CloudCover, Events, WindDirDegrees
2012-12-1,68,53,37,50,43,35,93,71,48,30.41,30.36,30.33,10,8,4,12,2,15,0.00,1,,117
2012-12-2,67,54,40,54,44,38,96,72,48,30.42,30.36,30.30,10,5,0,9,2,12,0.00,6,Fog,108
2012-12-3,76,62,47,58,51,46,100,75,49,30.33,30.30,30.25,10,5,0,14,3,17,0.00,1,Fog,245
2012-12-4,74,61,47,60,51,45,100,81,61,30.36,30.30,30.23,10,4,0,12,3,15,0.00,4,Fog,197
2012-12-5,75,63,51,57,53,49,100,69,38,30.22,30.17,30.10,10,8,0,17,6,20,0.05,3,Fog-Rain,268
2012-12-6,54,50,45,50,43,39,86,75,63,30.27,30.21,30.17,10,10,5,17,9,23,0.02,8,Rain,35
2012-12-7,67,56,45,61,54,41,100,86,72,30.16,30.04,29.98,10,6,0,12,5,14,0.01,7,Fog-Rain,62
2012-12-8,67,60,53,61,56,52,100,84,68,30.09,30.02,29.96,10,6,0,12,5,14,0.00,5,Fog,268
2012-12-9,73,62,50,65,56,48,97,83,68,30.17,30.10,30.01,10,8,1,10,4,,T,4,,126
2012-12-10,75,69,62,65,63,58,100,84,68,29.99,29.87,29.80,10,8,0,22,9,28,0.02,5,Fog-Rain,204
2012-12-11,74,66,58,67,62,55,93,79,64,30.09,29.94,29.79,10,8,4,15,6,21,0.03,6,Rain,258
2012-12-12,58,51,43,54,46,40,96,91,86,30.25,30.18,30.10,10,6,2,18,12,24,0.58,8,Rain,20
2012-12-13,51,47,43,45,41,38,96,85,74,30.31,30.25,30.12,10,8,2,23,11,30,0.24,6,Rain,2
2012-12-14,60,49,37,40,37,34,92,70,47,30.35,30.29,30.23,10,10,7,15,5,20,0.00,0,,11
2012-12-15,61,49,37,53,45,36,93,79,64,30.26,30.19,30.10,10,10,9,7,2,9,T,5,,45
2012-12-16,63,59,55,61,57,53,100,94,87,30.11,30.04,29.93,10,6,0,10,3,12,0.03,7,Fog-Rain,212
2012-12-17,65,62,58,63,60,56,100,92,84,29.90,29.83,29.72,10,9,3,17,6,24,0.29,7,Rain,233
2012-12-18,66,61,56,56,49,36,93,71,48,29.94,29.78,29.70,10,10,10,24,12,30,0.00,3,,256
2012-12-19,66,54,41,43,38,33,96,64,31,30.13,30.04,29.94,10,10,10,14,5,16,0.00,0,,254
2012-12-20,72,55,38,63,50,37,100,75,49,30.14,29.95,29.57,10,9,6,32,10,40,0.09,2,Rain,141
2012-12-21,68,53,37,65,36,23,87,64,41,29.86,29.69,29.52,10,9,3,36,18,46,0.09,4,Rain,260
2012-12-22,50,43,35,27,25,22,70,52,34,30.13,30.03,29.86,10,10,10,25,11,33,0.00,0,,269
2012-12-23,57,43,28,39,28,19,85,55,24,30.20,30.12,30.07,10,10,10,9,4,12,0.00,0,,221
2012-12-24,64,52,40,45,38,30,79,55,31,30.10,30.02,29.94,10,10,10,16,6,21,T,2,,220
2012-12-25,62,55,47,50,47,40,89,76,63,30.09,30.03,29.96,10,10,7,10,5,14,0.01,5,Rain,89
2012-12-26,68,57,46,64,55,35,93,76,59,30.02,29.73,29.48,10,6,1,30,14,39,1.83,7,Rain-Thunderstorm,140
2012-12-27,56,47,38,35,33,32,82,63,43,30.06,29.90,29.69,10,10,10,23,10,30,0.00,0,,283
2012-12-28,50,41,32,40,33,27,92,74,56,30.18,30.10,30.01,10,10,10,8,3,10,0.00,2,,23
2012-12-29,53,48,43,47,43,34,96,85,74,29.95,29.77,29.67,10,8,2,23,10,30,1.31,7,Rain,327
2012-12-30,49,39,29,33,25,22,85,60,34,30.42,30.26,29.97,10,10,10,24,10,30,0.00,0,,311
2012-12-31,56,41,25,43,31,24,92,62,32,30.43,30.31,30.17,10,10,10,15,5,21,0.00,2,,221